This is the latest recevied weather packets stored in our database for station/object WX1NWA. If no packets are shown the sender has not sent any weather packets the latest 10 day(s).
| Time | Temp. | Humidity | Pressure | Rain* | Wind** | Luminosity | Snow |
|---|---|---|---|---|---|---|---|
| 1777940743 | 18.89° C | 69% | 1010.1 hPa | 0 mm | - | 16 W/m² | - |
| 1777940437 | 18.89° C | 69% | 1010 hPa | 0 mm | - | 21 W/m² | - |
| 1777940134 | 19.44° C | 68% | 1009.8 hPa | 0 mm | - | 25 W/m² | - |
| 1777939831 | 19.44° C | 68% | 1010 hPa | 0 mm | - | 30 W/m² | - |
| 1777939529 | 19.44° C | 67% | 1010.3 hPa | 0 mm | - | 35 W/m² | - |
| 1777939226 | 19.44° C | 67% | 1010.1 hPa | 0 mm | - | 36 W/m² | - |
| 1777938922 | 20° C | 67% | 1010.2 hPa | 0 mm | - | 35 W/m² | - |
| 1777938619 | 20° C | 65% | 1009.8 hPa | 0 mm | - | 42 W/m² | - |
| 1777938316 | 20° C | 64% | 1010 hPa | 0 mm | - | 54 W/m² | - |
| 1777938013 | 20° C | 64% | 1010.2 hPa | 0 mm | - | 55 W/m² | - |
| 1777937708 | 20° C | 65% | 1010.1 hPa | 0 mm | - | 48 W/m² | - |
| 1777937405 | 20.56° C | 64% | 1010.2 hPa | 0 mm | - | 57 W/m² | - |
| 1777937102 | 20.56° C | 64% | 1009.9 hPa | 0 mm | - | 65 W/m² | - |
| 1777936800 | 20.56° C | 64% | 1010.2 hPa | 0 mm | - | 64 W/m² | - |
| 1777936497 | 20.56° C | 64% | 1010.4 hPa | 0 mm | - | 65 W/m² | - |
| 1777936193 | 20.56° C | 64% | 1010.2 hPa | 0 mm | - | 75 W/m² | - |
| 1777935890 | 20.56° C | 64% | 1010.4 hPa | 0 mm | - | 72 W/m² | - |
| 1777935589 | 20.56° C | 64% | 1010.6 hPa | 0 mm | - | 81 W/m² | - |
| 1777935285 | 20.56° C | 62% | 1010.5 hPa | 0 mm | - | 71 W/m² | - |
| 1777934982 | 20.56° C | 63% | 1010.7 hPa | 0 mm | - | 76 W/m² | - |
| 1777934679 | 20.56° C | 62% | 1010.5 hPa | 0 mm | - | 93 W/m² | - |
| 1777934376 | 20.56° C | 62% | 1010.7 hPa | 0 mm | - | 93 W/m² | - |
| 1777934071 | 20.56° C | 62% | 1010.8 hPa | 0 mm | - | 97 W/m² | - |
| 1777933767 | 21.11° C | 62% | 1010.8 hPa | 0 mm | - | 109 W/m² | - |
| 1777933465 | 21.11° C | 62% | 1010.7 hPa | 0 mm | - | 119 W/m² | - |
* Rain latest hour (hover to see other rain measurements)
** Current wind speed in m/s (hover to see current wind gust speed)